FGN301 KSLC-KJAC

Flight info

Callsign FGN301
Flight time 0h 38m
Altitude 33000
Route RUGGD3 HOLTR ELLKK MOSSS
Aircraft A346/H-SDE2E3FGHIJ3J4J5M1RWXY/LB1D1

Departure

Time 2026-05-07 10:39
Airport Salt Lake City International Airport (KSLC)

Arrival

Time 2026-05-07 11:17
Airport Jackson Hole Airport (KJAC)
Time Latitude Longitude Altitude Speed Heading
2026-05-07 10:24 40.78634 -111.98609 4243 ft 0 kts 176°
2026-05-07 10:30 40.78654 -111.98612 4240 ft 4 kts 174°
2026-05-07 10:30 40.78676 -111.98612 4241 ft 4 kts 192°
2026-05-07 10:30 40.78692 -111.98603 4240 ft 4 kts 229°
2026-05-07 10:30 40.78701 -111.98579 4241 ft 4 kts 261°
2026-05-07 10:31 40.78703 -111.98544 4241 ft 4 kts 265°
2026-05-07 10:31 40.78704 -111.98536 4242 ft 0 kts 264°
2026-05-07 10:32 40.78703 -111.98539 4242 ft 3 kts 264°
2026-05-07 10:32 40.78698 -111.98611 4242 ft 10 kts 264°
2026-05-07 10:33 40.78690 -111.98714 4243 ft 13 kts 264°
2026-05-07 10:33 40.78680 -111.98851 4243 ft 17 kts 264°
2026-05-07 10:33 40.78672 -111.98957 4243 ft 2 kts 264°
2026-05-07 10:33 40.78670 -111.98989 4243 ft 15 kts 264°
2026-05-07 10:34 40.78660 -111.99133 4243 ft 0 kts 265°
2026-05-07 10:34 40.78658 -111.99162 4243 ft 18 kts 265°
2026-05-07 10:34 40.78650 -111.99287 4243 ft 0 kts 265°
2026-05-07 10:35 40.78649 -111.99301 4243 ft 6 kts 265°
2026-05-07 10:35 40.78599 -111.99428 4243 ft 19 kts 202°
2026-05-07 10:35 40.78460 -111.99443 4243 ft 21 kts 175°
2026-05-07 10:35 40.78327 -111.99427 4241 ft 0 kts 296°
2026-05-07 10:36 40.79510 -111.99565 4242 ft 1 kts 355°
2026-05-07 10:36 40.79570 -111.99572 4242 ft 11 kts 355°
2026-05-07 10:36 40.79663 -111.99581 4242 ft 15 kts 355°
2026-05-07 10:36 40.79781 -111.99594 4243 ft 19 kts 355°
2026-05-07 10:37 40.79921 -111.99608 4243 ft 21 kts 355°
2026-05-07 10:37 40.80077 -111.99629 4242 ft 24 kts 354°
2026-05-07 10:37 40.80249 -111.99653 4243 ft 26 kts 354°
2026-05-07 10:37 40.80435 -111.99675 4243 ft 28 kts 356°
2026-05-07 10:38 40.80634 -111.99694 4243 ft 29 kts 355°
2026-05-07 10:38 40.80754 -111.99732 4242 ft 11 kts 304°
2026-05-07 10:38 40.80763 -111.99799 4242 ft 10 kts 274°
2026-05-07 10:38 40.80729 -111.99898 4241 ft 19 kts 203°
2026-05-07 10:39 40.80299 -111.99867 4244 ft 111 kts 175°
2026-05-07 10:39 40.79265 -111.99776 4447 ft 172 kts 175°
2026-05-07 10:39 40.77992 -111.99695 5311 ft 189 kts 181°
2026-05-07 10:39 40.76787 -112.00246 6624 ft 192 kts 214°
2026-05-07 10:40 40.76011 -112.01742 7613 ft 211 kts 253°
2026-05-07 10:40 40.75994 -112.03793 8402 ft 242 kts 285°
2026-05-07 10:40 40.76796 -112.05951 8855 ft 275 kts 302°
2026-05-07 10:40 40.77879 -112.08035 8997 ft 276 kts 305°
2026-05-07 10:41 40.79008 -112.10095 9002 ft 277 kts 306°
2026-05-07 10:41 40.80237 -112.12041 8977 ft 279 kts 321°
2026-05-07 10:41 40.82089 -112.12998 9316 ft 301 kts 354°
2026-05-07 10:41 40.84168 -112.12582 10570 ft 305 kts 17°
2026-05-07 10:42 40.86145 -112.11504 11715 ft 314 kts 19°
2026-05-07 10:42 40.88216 -112.10373 12479 ft 332 kts 18°
2026-05-07 10:42 40.90425 -112.09191 13186 ft 352 kts 18°
2026-05-07 10:42 40.92762 -112.07958 13855 ft 371 kts 18°
2026-05-07 10:43 40.95221 -112.06666 14443 ft 388 kts 19°
2026-05-07 10:43 40.97621 -112.04895 15135 ft 401 kts 33°
2026-05-07 10:43 40.99591 -112.02309 15307 ft 409 kts 49°
2026-05-07 10:43 41.00989 -111.99008 15317 ft 414 kts 63°
2026-05-07 10:44 41.02329 -111.95624 15334 ft 417 kts 50°
2026-05-07 10:44 41.04410 -111.92941 15847 ft 413 kts 32°
2026-05-07 10:44 41.06732 -111.90732 16631 ft 411 kts 32°
2026-05-07 10:44 41.09154 -111.88736 17636 ft 408 kts 22°
2026-05-07 10:45 41.11737 -111.87173 18790 ft 406 kts 19°
2026-05-07 10:45 41.14353 -111.85686 19622 ft 411 kts 18°
2026-05-07 10:45 41.16993 -111.84162 20455 ft 416 kts 19°
2026-05-07 10:45 41.19621 -111.82598 21296 ft 421 kts 19°
2026-05-07 10:46 41.22342 -111.80944 22127 ft 426 kts 19°
2026-05-07 10:46 41.25026 -111.79291 22960 ft 431 kts 20°
2026-05-07 10:46 41.27758 -111.77597 23763 ft 435 kts 19°
2026-05-07 10:46 41.30516 -111.75882 24420 ft 440 kts 20°
2026-05-07 10:47 41.33309 -111.74142 25124 ft 444 kts 20°
2026-05-07 10:47 41.36128 -111.72388 25787 ft 448 kts 19°
2026-05-07 10:47 41.39017 -111.70829 26425 ft 449 kts 15°
2026-05-07 10:47 41.41998 -111.69517 27081 ft 452 kts 12°
2026-05-07 10:48 41.45025 -111.68323 27717 ft 456 kts 11°
2026-05-07 10:48 41.48082 -111.67143 28337 ft 460 kts 11°
2026-05-07 10:48 41.51162 -111.65952 29195 ft 458 kts 11°
2026-05-07 10:48 41.54181 -111.64776 30249 ft 455 kts 11°
2026-05-07 10:49 41.57210 -111.63587 31248 ft 450 kts 11°
2026-05-07 10:49 41.60212 -111.62408 32155 ft 448 kts 11°
2026-05-07 10:49 41.63211 -111.61231 32781 ft 452 kts 11°
2026-05-07 10:49 41.66265 -111.60035 33089 ft 461 kts 11°
2026-05-07 10:50 41.69384 -111.58810 33106 ft 473 kts 11°
2026-05-07 10:50 41.72460 -111.57589 33043 ft 457 kts 11°
2026-05-07 10:50 41.78462 -111.55285 33077 ft 445 kts
2026-05-07 10:51 41.84535 -111.53639 33067 ft 441 kts
2026-05-07 10:51 41.90552 -111.52281 33075 ft 440 kts
2026-05-07 10:52 41.96609 -111.50922 33071 ft 440 kts
2026-05-07 10:52 42.02650 -111.49555 33069 ft 439 kts
2026-05-07 10:53 42.08675 -111.48190 33071 ft 439 kts
2026-05-07 10:53 42.14674 -111.46827 33071 ft 439 kts
2026-05-07 10:54 42.20697 -111.45452 33080 ft 439 kts
2026-05-07 10:54 42.26722 -111.44010 33072 ft 440 kts
2026-05-07 10:55 42.32676 -111.41902 33071 ft 444 kts 12°
2026-05-07 10:55 42.38528 -111.39123 33089 ft 446 kts 14°
2026-05-07 10:56 42.44343 -111.36225 33074 ft 445 kts 14°
2026-05-07 10:56 42.50159 -111.33326 33070 ft 445 kts 14°
2026-05-07 10:57 42.55976 -111.30423 32728 ft 444 kts 14°
2026-05-07 10:57 42.58870 -111.28976 32483 ft 443 kts 14°
2026-05-07 10:57 42.61757 -111.27528 32246 ft 441 kts 14°
2026-05-07 10:58 42.64628 -111.26089 31997 ft 439 kts 13°
2026-05-07 10:58 42.67500 -111.24652 31752 ft 439 kts 13°
2026-05-07 10:58 42.70343 -111.23228 31511 ft 441 kts 13°
2026-05-07 10:58 42.73231 -111.21780 31256 ft 442 kts 13°
2026-05-07 10:59 42.76122 -111.20328 31016 ft 444 kts 14°
2026-05-07 10:59 42.79030 -111.18865 30775 ft 445 kts 14°
2026-05-07 10:59 42.81936 -111.17401 30531 ft 447 kts 14°
2026-05-07 10:59 42.84855 -111.15917 30283 ft 449 kts 14°
2026-05-07 11:00 42.87749 -111.14249 30016 ft 453 kts 18°
2026-05-07 11:00 42.90598 -111.12339 29729 ft 457 kts 21°
2026-05-07 11:00 42.93381 -111.10190 29441 ft 461 kts 24°
2026-05-07 11:00 42.96085 -111.07807 29173 ft 465 kts 27°
2026-05-07 11:01 42.98708 -111.05183 28818 ft 469 kts 31°
2026-05-07 11:01 43.01282 -111.02427 28229 ft 471 kts 32°
2026-05-07 11:01 43.03848 -110.99628 27520 ft 470 kts 32°
2026-05-07 11:01 43.06348 -110.96883 27024 ft 465 kts 32°
2026-05-07 11:02 43.08863 -110.94121 26514 ft 460 kts 32°
2026-05-07 11:02 43.11357 -110.91385 25999 ft 456 kts 32°
2026-05-07 11:02 43.13822 -110.88682 25468 ft 452 kts 32°
2026-05-07 11:02 43.16267 -110.86002 24960 ft 448 kts 32°
2026-05-07 11:03 43.18700 -110.83336 24356 ft 446 kts 33°
2026-05-07 11:03 43.21131 -110.80672 23776 ft 444 kts 33°
2026-05-07 11:03 43.23537 -110.78031 23147 ft 442 kts 33°
2026-05-07 11:03 43.25921 -110.75407 22568 ft 437 kts 33°
2026-05-07 11:04 43.28278 -110.72811 22046 ft 431 kts 33°
2026-05-07 11:04 43.30608 -110.70244 21532 ft 426 kts 33°
2026-05-07 11:04 43.32904 -110.67710 21033 ft 422 kts 33°
2026-05-07 11:04 43.35184 -110.65192 20540 ft 418 kts 33°
2026-05-07 11:05 43.37440 -110.62698 20049 ft 414 kts 33°
2026-05-07 11:05 43.39681 -110.60218 19550 ft 411 kts 33°
2026-05-07 11:05 43.41868 -110.57799 19062 ft 408 kts 33°
2026-05-07 11:05 43.44079 -110.55351 18583 ft 406 kts 33°
2026-05-07 11:06 43.46285 -110.52908 18044 ft 405 kts 33°
2026-05-07 11:06 43.48470 -110.50483 17524 ft 402 kts 33°
2026-05-07 11:06 43.50635 -110.48077 17031 ft 398 kts 33°
2026-05-07 11:06 43.52791 -110.45680 16545 ft 395 kts 33°
2026-05-07 11:07 43.54923 -110.43305 16056 ft 393 kts 33°
2026-05-07 11:07 43.57048 -110.40937 15585 ft 391 kts 33°
2026-05-07 11:07 43.59157 -110.38582 15095 ft 387 kts 33°
2026-05-07 11:07 43.61240 -110.36255 14737 ft 380 kts 33°
2026-05-07 11:08 43.63254 -110.33997 14554 ft 366 kts 33°
2026-05-07 11:08 43.65200 -110.31818 14364 ft 353 kts 33°
2026-05-07 11:08 43.67127 -110.29855 14172 ft 333 kts 21°
2026-05-07 11:08 43.69264 -110.29008 13995 ft 310 kts 358°
2026-05-07 11:09 43.71322 -110.29310 13843 ft 289 kts 342°
2026-05-07 11:09 43.73208 -110.30003 13686 ft 278 kts 340°
2026-05-07 11:09 43.75048 -110.30701 13483 ft 269 kts 341°
2026-05-07 11:09 43.76825 -110.31362 13320 ft 259 kts 341°
2026-05-07 11:10 43.78542 -110.31988 13190 ft 250 kts 341°
2026-05-07 11:10 43.80191 -110.32628 13034 ft 241 kts 333°
2026-05-07 11:10 43.81536 -110.33922 12919 ft 235 kts 310°
2026-05-07 11:10 43.82344 -110.35892 12655 ft 239 kts 288°
2026-05-07 11:11 43.82484 -110.38171 12299 ft 244 kts 269°
2026-05-07 11:11 43.82330 -110.40538 11983 ft 243 kts 268°
2026-05-07 11:11 43.82166 -110.42875 11691 ft 242 kts 267°
2026-05-07 11:11 43.82002 -110.45165 11429 ft 240 kts 267°
2026-05-07 11:12 43.81839 -110.47420 11336 ft 229 kts 267°
2026-05-07 11:12 43.81683 -110.49560 11248 ft 217 kts 267°
2026-05-07 11:12 43.81533 -110.51621 11166 ft 214 kts 265°
2026-05-07 11:12 43.81200 -110.53643 11054 ft 217 kts 254°
2026-05-07 11:13 43.80609 -110.55585 10784 ft 219 kts 249°
2026-05-07 11:13 43.79959 -110.57485 10518 ft 217 kts 248°
2026-05-07 11:13 43.79303 -110.59371 10262 ft 216 kts 248°
2026-05-07 11:13 43.78630 -110.61232 10018 ft 216 kts 241°
2026-05-07 11:14 43.77653 -110.62822 9784 ft 219 kts 224°
2026-05-07 11:14 43.76469 -110.64149 9512 ft 219 kts 222°
2026-05-07 11:14 43.75257 -110.65451 9240 ft 221 kts 221°
2026-05-07 11:14 43.74040 -110.66760 9048 ft 219 kts 220°
2026-05-07 11:15 43.72740 -110.67888 8947 ft 222 kts 207°
2026-05-07 11:15 43.71281 -110.68686 8568 ft 229 kts 199°
2026-05-07 11:15 43.69784 -110.69361 8281 ft 227 kts 198°
2026-05-07 11:15 43.68330 -110.70043 7965 ft 213 kts 200°
2026-05-07 11:16 43.66986 -110.70707 7683 ft 197 kts 202°
2026-05-07 11:16 43.65747 -110.71323 7435 ft 181 kts 201°
2026-05-07 11:16 43.64602 -110.71882 7185 ft 168 kts 201°
2026-05-07 11:16 43.63542 -110.72398 6936 ft 157 kts 201°
2026-05-07 11:17 43.62520 -110.72899 6720 ft 154 kts 201°
2026-05-07 11:17 43.61514 -110.73380 6483 ft 161 kts 201°
2026-05-07 11:17 43.60845 -110.73714 6430 ft 143 kts 200°
2026-05-07 11:17 43.60234 -110.74013 6426 ft 44 kts 199°
2026-05-07 11:18 43.60047 -110.74107 6425 ft 16 kts 200°
2026-05-07 11:18 43.59934 -110.74113 6427 ft 16 kts 142°
2026-05-07 11:18 43.59954 -110.74006 6426 ft 15 kts 26°
2026-05-07 11:18 43.60057 -110.73947 6425 ft 17 kts 21°
2026-05-07 11:19 43.60179 -110.73881 6426 ft 18 kts 21°
2026-05-07 11:19 43.60272 -110.73834 6426 ft 8 kts 20°
2026-05-07 11:19 43.60308 -110.73816 6429 ft 0 kts 20°
2026-05-07 11:19 43.60314 -110.73812 6426 ft 2 kts 21°
2026-05-07 11:20 43.60334 -110.73791 6426 ft 9 kts 57°
2026-05-07 11:20 43.60339 -110.73768 6427 ft 1 kts 98°
2026-05-07 11:20 43.60338 -110.73749 6428 ft 0 kts 96°
2026-05-07 11:20 43.60338 -110.73748 6428 ft 0 kts 96°
2026-05-07 11:23 43.60338 -110.73721 6428 ft 0 kts 109°